Weather History for Nassau Airport, Bahamas

Change the Weather History Date:

Friday, August 23, 2013

  Actual Average Record
Temperature  
Mean Temperature 84 °F -  
Max Temperature 91 °F 88 °F - ()
Min Temperature 78 °F 74 °F - ()
Cooling Degree Days 20    
Growing Degree Days 34 (Base 50)    
Moisture  
Dew Point 76 °F    
Average Humidity 74    
Maximum Humidity 89    
Minimum Humidity 58    
Precipitation  
Precipitation 0.00 in 0.24 in - ()
Sea Level Pressure  
Sea Level Pressure 29.99 in    
Wind  
Wind Speed 5 mph ()    
Max Wind Speed 12 mph    
Max Gust Speed -    
Visibility 6.9 miles    
Events      
T = Trace of Precipitation, MM = Missing Value Source: Averaged Metar Reports

Daily Weather History Graph

Daily Weather History Graph

Search for Another Location

Airport:

Trip Planner

Search our weather history database for the weather conditions in past years. The results will help you decide how hot, cold, wet, or windy it might be!

Date:

Astronomy

Aug. 23, 2013 Rise Set
Actual Time 6:47 AM EDT 7:37 PM EDT
Civil Twilight 6:23 AM EDT 8:00 PM EDT
Nautical Twilight 5:56 AM EDT 8:28 PM EDT
Astronomical Twilight 5:27 AM EDT 8:56 PM EDT
Moon 9:22 PM EDT (8/23) 9:16 AM EDT (8/23)
Length of Visible Light 13h 36m
Length of Day
12h 49m
Waning Gibbous, 91% of the Moon is Illuminated
Aug 23
Waning Gibbous
Aug 28
Last Quarter
Sep 5
New
Sep 12
First Quarter
Sep 19
Full

Hourly Weather History & Observations

Time (EDT) Temp. Heat Index Dew Point Humidity Pressure Visibility Wind Dir Wind Speed Gust Speed Precip Events Conditions
12:00 AM 80.6 °F 86.2 °F 75.2 °F 84% 30.02 in 6.2 mi East 2.3 mph - N/A   Partly Cloudy
2:00 AM 81 °F - - % 29.99 in 9 mi East 2.3 mph - -   Scattered Clouds
2:00 AM 80.6 °F 87.1 °F 77.0 °F 89% 29.98 in 6.2 mi East 2.3 mph - N/A   Partly Cloudy
4:00 AM 80.6 °F 87.1 °F 77.0 °F 89% 29.95 in 6.2 mi East 3.5 mph - N/A   Partly Cloudy
5:00 AM 80.6 °F 87.1 °F 77.0 °F 89% 29.95 in 6.2 mi East 3.5 mph - N/A   Scattered Clouds
6:00 AM 80.6 °F 87.1 °F 77.0 °F 89% 29.96 in 6.2 mi East 2.3 mph - N/A   Partly Cloudy
7:00 AM 80.6 °F 86.2 °F 75.2 °F 84% 29.96 in 6.2 mi ESE 3.5 mph - N/A   Scattered Clouds
8:00 AM 83 °F - 77 °F 79% 29.99 in 9 mi ESE 3.5 mph - -   Scattered Clouds
8:00 AM 82.4 °F 90.9 °F 77.0 °F 84% 29.98 in 6.2 mi ESE 3.5 mph - N/A   Mostly Cloudy
9:00 AM 84.2 °F 92.3 °F 75.2 °F 74% 29.99 in 6.2 mi ESE 5.8 mph - N/A   Mostly Cloudy
10:00 AM 84.2 °F 92.3 °F 75.2 °F 74% 30.00 in 6.2 mi East 6.9 mph - N/A   Mostly Cloudy
11:00 AM 88 °F - 78 °F 65% 30.02 in 9 mi ESE 6.9 mph - -   Mostly Cloudy
11:00 AM 87.8 °F 99.7 °F 77.0 °F 70% 30.02 in 6.2 mi ESE 6.9 mph - N/A   Mostly Cloudy
12:00 PM 87.8 °F 97.6 °F 75.2 °F 66% 30.02 in 6.2 mi SE 10.4 mph - N/A   Scattered Clouds
1:00 PM 89.6 °F 98.2 °F 73.4 °F 59% 30.02 in 6.2 mi ESE 9.2 mph - N/A   Scattered Clouds
2:00 PM 90 °F - 78 °F 61% 30.01 in 9 mi ESE 10.4 mph - -   Partly Cloudy
2:00 PM 89.6 °F 104.7 °F 78.8 °F 70% 30.02 in 6.2 mi ESE 10.4 mph - N/A   Mostly Cloudy
3:00 PM 89.6 °F 98.2 °F 73.4 °F 59% 29.98 in 6.2 mi SE 8.1 mph - N/A   Mostly Cloudy
4:00 PM 87.8 °F 93.8 °F 71.6 °F 58% 29.97 in 6.2 mi ESE 9.2 mph - N/A   Mostly Cloudy
5:00 PM 89 °F - 77 °F 61% 29.97 in 9 mi ESE 8.1 mph - -   Partly Cloudy
5:00 PM 89.6 °F 102.2 °F 77.0 °F 66% 29.97 in 6.2 mi ESE 8.1 mph - N/A   Mostly Cloudy
6:00 PM 86.0 °F 93.4 °F 73.4 °F 66% 29.97 in 6.2 mi East 11.5 mph - N/A   Scattered Clouds
7:00 PM 86.0 °F 93.4 °F 73.4 °F 66% 29.97 in 6.2 mi SE 6.9 mph - N/A   Scattered Clouds
8:00 PM 84 °F - 77 °F 74% 29.99 in 9 mi SE 8.1 mph - -   Scattered Clouds
8:00 PM 84.2 °F 94.1 °F 77.0 °F 79% 29.99 in 6.2 mi SE 8.1 mph - N/A   Scattered Clouds
9:00 PM 84.2 °F 90.9 °F 73.4 °F 70% 30.02 in 6.2 mi SE 3.5 mph - N/A   Scattered Clouds
10:00 PM 82.4 °F 89.5 °F 75.2 °F 79% 30.02 in 6.2 mi East 3.5 mph - N/A   Partly Cloudy
11:00 PM 83 °F - 77 °F 77% 30.04 in 9 mi ESE 3.5 mph - -   Scattered Clouds
11:00 PM 84.2 °F 94.1 °F 77.0 °F 79% 30.04 in 6.2 mi ESE 3.5 mph - N/A   Partly Cloudy